STARLINK-2032, 47649

Orbit data source: Space-Track

STARLINK-2032, 47649 is a payload satellite owned by SpaceX/Seattle (US) in LEO that was launched on Tue, 16 Feb 2021 UTC via an FALCON 9 launch vehicle from the Air Force Eastern Test Range (AFETR). Payload-class satellites include a variety of spacecraft equipped with specific instruments for various scientific and technological missions. These include communications satellites like Starlink; space stations such as the ISS; scientific satellites like the Hubble; Earth observation satellites from companies like Planet Labs, Umbra, and HawkEye 360; GPS; miniature CubeSats for education and research; and military/defense satellites.

Loading next visibility...
Identifier
47649, 2021-012AF
Orbit
LEO
Country
Flag of USUS
Related business
Manufacturer
SpaceX/Seattle
Mission
Operational Commercial Communications
Bus & Motor
STARLINK, Unknown motor
Mass
260 kg wet, ~248 kg dry
Launch date (UTC)
2021-02-16 (5 years ago)
Launch vehicle
FALCON 9
Launch site
Air Force Eastern Test Range (AFETR)
Object type
Payload
Rocket body
Debris
Shape & HBR
Box + 1 Pan, 4.4 m
Radar Cross Section
13.562 m², Large (>1 m²)

Expand to show TLE details & history
Last TLE update: 23 hours ago

TLE from 23 hours ago
0 STARLINK-2032
1 47649U 21012AF  25241.16575196  .00001624  00000-0  12786-3 0  9990
2 47649  53.0538 195.8912 0001453  93.9582 266.1573 15.06407983251258
Epoch: 2025-08-29T03:58Z
TLE epoch observation values (Epoch: 2025-08-29T03:58:40.969Z)
Latitude
-0.00002°
Longitude
158.60217°
Altitude
548.134 km
Speed
7.589 km/s
True Right ascension
13h 03m 33s
True Declination
0° 00' 00"
Sunlit
Object was in daylight at epoch
Visualization orbit readout
Latitude
Unknown
Longitude
Unknown
Altitude
Unknown
Speed
Unknown
Apparent Right ascension
Unknown
Apparent Declination
Unknown
Sunlit
N/A
Visualization observer readout
Local Sidereal Time
18:05:30
Azimuth
Unknown
Elevation
Unknown
Doppler factor
Unknown
Orbital elements
Apogee altitude
548.464 km
Perigee altitude
546.452 km
Semi-major axis
6,925.595 km
Eccentricity
0.00015
Inclination
53.0538°
RAAN
195.8912°
Arg. of periapsis
93.9582°
True anomaly
266.14069°
Mean anomaly
266.1573°
Eccentric anomaly
266.14899°
Mean motion
3.7658 °/min
Orbital period
95.6 mins
BSTAR
0.00012786
Loading maneuver chart data...
Computing Atmospheric mass density...

Documentation

Showing up to 5 results
|